• In Hungary
  • List of Countries
  • For 7 days
  • Water Temperature
  • Satellite Maps
  • Weather Map
  • News
  • Weather Widgets
  • user-avatar
    Login

    Hourly Weather Podsadek

    Today, 15 October, Monday

    Time Temperature Precipitation Wind Pressure Humidity
    00:00 +12°C° 0 mm 2 mps 742 mmHg 64%
    01:00 +12°C° 0 mm 2 mps 742 mmHg 67%
    02:00 +12°C° 0 mm 2 mps 742 mmHg 68%
    03:00 +12°C° 0 mm 2 mps 742 mmHg 69%
    04:00 +12°C° 0 mm 1 mps 742 mmHg 69%
    05:00 +12°C° 0 mm 1 mps 742 mmHg 68%
    06:00 +12°C° 0 mm 1 mps 742 mmHg 67%
    07:00 +12°C° 0 mm 1 mps 742 mmHg 62%
    08:00 +14°C° 0 mm 2 mps 742 mmHg 55%
    09:00 +16°C° 0 mm 2 mps 742 mmHg 47%
    10:00 +18°C° 0 mm 2 mps 742 mmHg 40%
    11:00 +20°C° 0 mm 2 mps 742 mmHg 36%
    12:00 +21°C° 0 mm 2 mps 742 mmHg 32%
    13:00 +23°C° 0 mm 2 mps 742 mmHg 29%
    14:00 +21°C° 0 mm 2 mps 742 mmHg 31%
    15:00 +20°C° 0 mm 2 mps 741 mmHg 33%
    16:00 +20°C° 0 mm 2 mps 741 mmHg 36%
    17:00 +18°C° 0 mm 2 mps 741 mmHg 39%
    18:00 +16°C° 0 mm 2 mps 741 mmHg 42%
    19:00 +15°C° 0 mm 2 mps 741 mmHg 45%
    20:00 +14°C° 0 mm 2 mps 741 mmHg 46%
    21:00 +13°C° 0 mm 2 mps 741 mmHg 48%
    22:00 +13°C° 0 mm 2 mps 741 mmHg 50%
    23:00 +12°C° 0 mm 2 mps 741 mmHg 51%

    Tomorrow, 16 October, Tuesday

    Time Temperature Precipitation Wind Pressure Humidity
    00:00 +12°C° 0 mm 1 mps 741 mmHg 52%
    01:00 +12°C° 0 mm 1 mps 741 mmHg 53%
    02:00 +11°C° 0 mm 1 mps 741 mmHg 54%
    03:00 +11°C° 0 mm 1 mps 741 mmHg 55%
    04:00 +11°C° 0 mm 1 mps 741 mmHg 56%
    05:00 +11°C° 0 mm 1 mps 741 mmHg 55%
    06:00 +11°C° 0 mm 1 mps 741 mmHg 54%
    07:00 +12°C° 0 mm 1 mps 741 mmHg 54%
    08:00 +14°C° 0 mm 1 mps 741 mmHg 48%
    09:00 +16°C° 0 mm 1 mps 742 mmHg 41%
    10:00 +20°C° 0 mm 1 mps 742 mmHg 35%
    11:00 +21°C° 0 mm 1 mps 742 mmHg 33%
    12:00 +22°C° 0 mm 1 mps 742 mmHg 30%
    13:00 +23°C° 0 mm 1 mps 742 mmHg 28%
    14:00 +22°C° 0 mm 1 mps 741 mmHg 31%
    15:00 +21°C° 0 mm 1 mps 741 mmHg 33%
    16:00 +20°C° 0 mm 1 mps 741 mmHg 36%
    17:00 +19°C° 0 mm 1 mps 741 mmHg 39%
    18:00 +16°C° 0 mm 1 mps 741 mmHg 42%
    19:00 +15°C° 0 mm 1 mps 741 mmHg 45%
    20:00 +15°C° 0 mm 1 mps 741 mmHg 46%
    21:00 +14°C° 0 mm 1 mps 742 mmHg 47%
    22:00 +14°C° 0 mm 1 mps 742 mmHg 48%
    23:00 +14°C° 0 mm 1 mps 742 mmHg 48%

    Day after tomorrow, 17 October, Wednesday

    Time Temperature Precipitation Wind Pressure Humidity
    00:00 +13°C° 0 mm 0 mps 742 mmHg 49%
    01:00 +13°C° 0 mm 0 mps 742 mmHg 49%
    02:00 +12°C° 0 mm 0 mps 741 mmHg 50%
    03:00 +12°C° 0 mm 0 mps 741 mmHg 51%
    04:00 +12°C° 0 mm 0 mps 741 mmHg 52%
    05:00 +13°C° 0 mm 1 mps 741 mmHg 52%
    06:00 +13°C° 0 mm 1 mps 741 mmHg 52%
    07:00 +13°C° 0 mm 1 mps 741 mmHg 53%
    08:00 +15°C° 0 mm 1 mps 741 mmHg 48%
    09:00 +18°C° 0 mm 1 mps 742 mmHg 43%
    10:00 +19°C° 0 mm 1 mps 742 mmHg 39%
    11:00 +20°C° 0 mm 1 mps 741 mmHg 37%
    12:00 +21°C° 0 mm 1 mps 741 mmHg 35%
    13:00 +22°C° 0 mm 1 mps 741 mmHg 33%
    14:00 +22°C° 0 mm 1 mps 741 mmHg 36%
    15:00 +21°C° 0 mm 1 mps 741 mmHg 38%
    16:00 +20°C° 0 mm 1 mps 740 mmHg 41%
    17:00 +18°C° 0 mm 2 mps 740 mmHg 43%
    18:00 +17°C° 0 mm 2 mps 740 mmHg 46%
    19:00 +16°C° 0 mm 2 mps 740 mmHg 48%
    20:00 +15°C° 0 mm 2 mps 740 mmHg 50%
    21:00 +14°C° 0 mm 1 mps 740 mmHg 51%
    22:00 +14°C° 0 mm 1 mps 740 mmHg 53%
    23:00 +13°C° 0 mm 1 mps 740 mmHg 55%

    18 October, Thursday

    Time Temperature Precipitation Wind Pressure Humidity
    00:00 +13°C° 0 mm 1 mps 740 mmHg 57%
    01:00 +13°C° 0 mm 1 mps 740 mmHg 60%
    02:00 +11°C° 0 mm 0 mps 740 mmHg 62%
    03:00 +11°C° 0 mm 0 mps 740 mmHg 64%
    04:00 +10°C° 0 mm 0 mps 740 mmHg 66%
    05:00 +10°C° 0 mm 0 mps 740 mmHg 67%
    06:00 +12°C° 0 mm 1 mps 740 mmHg 68%
    07:00 +12°C° 0 mm 1 mps 740 mmHg 69%
    08:00 +13°C° 0 mm 1 mps 740 mmHg 64%
    09:00 +15°C° 0 mm 1 mps 740 mmHg 59%
    10:00 +18°C° 0 mm 1 mps 740 mmHg 54%
    11:00 +17°C° 0 mm 2 mps 740 mmHg 52%
    12:00 +18°C° 0 mm 2 mps 739 mmHg 50%
    13:00 +19°C° 0 mm 2 mps 739 mmHg 48%
    14:00 +18°C° 0 mm 2 mps 739 mmHg 51%
    15:00 +19°C° 0 mm 1 mps 739 mmHg 54%
    16:00 +18°C° 0 mm 1 mps 739 mmHg 57%
    17:00 +16°C° 0 mm 1 mps 739 mmHg 60%
    18:00 +15°C° 0 mm 1 mps 739 mmHg 64%
    19:00 +14°C° 0 mm 1 mps 739 mmHg 67%
    20:00 +14°C° 0 mm 1 mps 739 mmHg 68%
    21:00 +14°C° 0 mm 1 mps 740 mmHg 69%
    22:00 +14°C° 0 mm 1 mps 740 mmHg 70%
    23:00 +13°C° 0 mm 1 mps 740 mmHg 72%

    19 October, Friday

    Time Temperature Precipitation Wind Pressure Humidity
    00:00 +13°C° 0 mm 1 mps 740 mmHg 73%
    01:00 +13°C° 0 mm 1 mps 740 mmHg 75%
    02:00 +12°C° 0 mm 1 mps 739 mmHg 76%
    03:00 +11°C° 0 mm 0 mps 739 mmHg 77%
    04:00 +11°C° 0 mm 0 mps 739 mmHg 78%
    05:00 +11°C° 0 mm 0 mps 739 mmHg 78%
    06:00 +11°C° 0 mm 0 mps 740 mmHg 78%
    07:00 +12°C° 0 mm 0 mps 740 mmHg 77%
    08:00 +14°C° 0 mm 1 mps 740 mmHg 71%
    09:00 +15°C° 0 mm 1 mps 740 mmHg 65%
    10:00 +18°C° 0 mm 1 mps 740 mmHg 59%
    11:00 +19°C° 0 mm 1 mps 740 mmHg 57%
    12:00 +18°C° 0 mm 2 mps 740 mmHg 54%
    13:00 +19°C° 0 mm 2 mps 739 mmHg 51%
    14:00 +18°C° 0 mm 2 mps 739 mmHg 53%
    15:00 +18°C° 0 mm 2 mps 739 mmHg 56%
    16:00 +17°C° 0 mm 2 mps 739 mmHg 58%
    17:00 +16°C° 0 mm 2 mps 739 mmHg 63%
    18:00 +15°C° 0 mm 2 mps 740 mmHg 68%
    19:00 +14°C° 0 mm 2 mps 740 mmHg 72%
    20:00 +13°C° 0 mm 2 mps 740 mmHg 75%
    21:00 +13°C° 0 mm 2 mps 740 mmHg 78%
    22:00 +12°C° 0 mm 2 mps 740 mmHg 80%
    23:00 +12°C° 0 mm 2 mps 740 mmHg 82%

    20 October, Saturday

    Time Temperature Precipitation Wind Pressure Humidity
    00:00 +12°C° 0 mm 2 mps 740 mmHg 85%
    01:00 +10°C° 0 mm 2 mps 740 mmHg 87%
    02:00 +10°C° 0 mm 2 mps 740 mmHg 87%
    03:00 +10°C° 0 mm 2 mps 741 mmHg 88%
    04:00 +10°C° 0 mm 3 mps 741 mmHg 89%
    05:00 +10°C° 0.1 mm 3 mps 741 mmHg 86%
    06:00 +10°C° 0.1 mm 3 mps 741 mmHg 84%
    07:00 +10°C° 0.1 mm 4 mps 742 mmHg 81%
    08:00 +11°C° 0.1 mm 4 mps 742 mmHg 74%
    09:00 +11°C° 0.1 mm 4 mps 742 mmHg 67%
    10:00 +11°C° 0.1 mm 4 mps 742 mmHg 61%
    11:00 +12°C° 0 mm 4 mps 742 mmHg 57%
    12:00 +12°C° 0 mm 5 mps 742 mmHg 54%
    13:00 +13°C° 0 mm 5 mps 742 mmHg 51%
    14:00 +12°C° 0 mm 4 mps 742 mmHg 54%
    15:00 +11°C° 0 mm 4 mps 742 mmHg 57%
    16:00 +11°C° 0 mm 4 mps 742 mmHg 60%
    17:00 +10°C° 0 mm 4 mps 743 mmHg 64%
    18:00 +8°C° 0 mm 4 mps 743 mmHg 68%
    19:00 +8°C° 0 mm 3 mps 743 mmHg 72%
    20:00 +8°C° 0 mm 3 mps 744 mmHg 70%
    21:00 +8°C° 0 mm 3 mps 744 mmHg 69%
    22:00 +8°C° 0 mm 3 mps 744 mmHg 68%
    23:00 +8°C° 0 mm 3 mps 744 mmHg 67%
    Show more